Overview Statistics Trail Chart Weather Telemetry Raw packets
 

This is the latest recevied weather packets stored in our database for station/object K9MWD. If no packets are shown the sender has not sent any weather packets the latest 10 day(s).

<< 106 107 108 109 110 111 112 >>
Time Temp. Humidity Pressure Rain* Wind** Luminosity Snow
1787833806 26.11° C 73% 1014.8 hPa 0 mm - 32 W/m² -
1787833501 26.11° C 73% 1014.8 hPa 0 mm - 26 W/m² -
1787833197 25.56° C 74% 1014.4 hPa 0 mm - 20 W/m² -
1787832892 25.56° C 74% 1014.4 hPa 0 mm - 15 W/m² -
1787832588 25.56° C 73% 1014.6 hPa 0 mm - 11 W/m² -
1787832287 26.11° C 73% 1014.8 hPa 0 mm - 7 W/m² -
1787831985 26.11° C 73% 1014.7 hPa 0 mm - 4 W/m² -
1787831680 25.56° C 73% 1014.7 hPa 0 mm - 2 W/m² -
1787831379 25.56° C 74% 1014.6 hPa 0 mm - 1 W/m² -
1787831077 25.56° C 74% 1014.4 hPa 0 mm - 0 W/m² -
1787830775 25.56° C 74% 1014.3 hPa 0 mm - 0 W/m² -
1787830474 25.56° C 74% 1014.4 hPa 0 mm - 0 W/m² -
1787830174 25.56° C 75% 1014.2 hPa 0 mm - 0 W/m² -
1787829868 25.56° C 75% 1014.2 hPa 0 mm - 0 W/m² -
1787829567 25.56° C 75% 1014 hPa 0 mm - 0 W/m² -
1787829264 25.56° C 75% 1014.1 hPa 0 mm - 0 W/m² -
1787828959 25.56° C 75% 1014.1 hPa 0 mm - 0 W/m² -
1787828655 25.56° C 75% 1014.2 hPa 0 mm - 0 W/m² -
1787828351 25.56° C 75% 1013.9 hPa 0 mm - 0 W/m² -
1787828049 25.56° C 75% 1013.8 hPa 0 mm - 0 W/m² -
1787827743 25.56° C 74% 1013.7 hPa 0 mm - 0 W/m² -
1787827439 25.56° C 74% 1013.8 hPa 0 mm - 0 W/m² -
1787827139 25.56° C 73% 1013.7 hPa 0 mm - 0 W/m² -
1787826838 26.11° C 73% 1014 hPa 0 mm - 0 W/m² -
1787826533 26.11° C 71% 1013.7 hPa 0 mm - 0 W/m² -

* Rain latest hour (hover to see other rain measurements)
** Current wind speed in m/s (hover to see current wind gust speed)